Location: Marcé
(47.5801°N, 0.3280°W)
Time: 06:52:31
(UTC+01:00)

Courier 1B - Pass Details

Date: 30 November 2021
Orbit: 962 x 1209 km, 28.3° (Epoch: 23 January)

Event Time Altitude Azimuth Distance (km) Brightness Sun altitude
Rises 21:54:37 0° 240° (WSW) 3,799 11.0 -46.5°
Enters shadow 21:56:42 - 230° (SW) 3,270 10.5 -46.8°
Reaches altitude 10° 21:59:13 10° 214° (SSW) 2,788 - -47.2°
Maximum altitude 22:01:52 13° 190° (S) 2,573 - -47.6°
Drops below altitude 10° 22:04:29 10° 166° (SSE) 2,733 - -48.0°
Sets 22:08:53 0° 139° (SE) 3,648 - -48.7°
